STARLINK-2536 (48310 NORAD) Tracking and Keplerian Element Data

This shows tracking and keplerian element data for the satellite.

Feedback or suggestion? Click here.




ElementValue
Catalog48310
NameSTARLINK-2536
Epoch Orbit1560
Epoch Day215.05512898
Epoch Year2021
RAAN71.7789
Inclination53.0554
Eccentricity0.0001779
Argument of Perigee100.5652
Mean Anonmoly259.5538
Mean Motion15.06388855
Decay Rate4.63E-06
L11 48310U 21036AL 21215.05512898 .00000463 00000-0 49996-4 0 9991
L22 48310 53.0554 71.7789 0001779 100.5652 259.5538 15.06388855 15600

Live tracking and technical data element details for STARLINK-2536 (NORAD 48310). STARLINK-2536 can be tracked NOW for your location showing map with azimuth and elevation plus other details from your city location.

Track the satellite on the map from your city or location and see movement details for azimuth, elevation, latitude, longitude, range, height, and movement on the map or in text.







IsCatalogInMostPopularTable: catalog: 48310, numindb: 32
Update: records affected: 1



GetName: 48310 STARLINK-2536

Hit Count: updated at: Tue, 03 Aug 2021 19:48:12 GMT